SL-16 DEB, 20626

Orbit data source: Space-Track

SL-16 DEB, 20626 is space debris in LEO originally from a launch on Tue, 22 May 1990 UTC launched from the Tyuratam Missile And Space Complex (TTMTR). Debris objects in space refer to the collection of defunct objects orbiting the Earth. Examples of debris include non-operational satellites, rocket bodies, and fragments generated from explosions, collisions, or faulty payload assembly.

Loading next visibility...
Identifier
20626, 1990-046C
Orbit
LEO
Country
Flag of CISCIS
Related business
Manufacturer
Yuzhnoe
Mission
Spacecraft
Bus & Motor
SEP MOTOR COVER, Unknown motor
Mass
~0 kg wet, ~1 kg dry
Launch date (UTC)
1990-05-22 (36 years ago)
Launch vehicle
Unknown
Launch site
Tyuratam Missile And Space Complex (TTMTR)
Object type
Payload
Rocket body
Debris
Shape & HBR
Unknown shape, 0.1 m
Radar Cross Section
Medium (>0.1 m² and <1 m²)

Expand to show TLE details & history
Last TLE update: 13 hours ago

TLE from 13 hours ago
0 SL-16 DEB
1 20626U 90046C   26165.53417366  .00000092  00000-0  12432-3 0  9996
2 20626  71.0147 211.4821 0205153 148.2591 326.9964 13.72970680805738
Epoch: 2026-06-14T12:49Z
TLE epoch observation values (Epoch: 2026-06-14T12:49:12.604Z)
Latitude
59.90163°
Longitude
-99.83961°
Altitude
872.742 km
Speed
7.485 km/s
True Right ascension
23h 41m 11s
True Declination
59° 45' 16"
Sunlit
Object was in daylight at epoch
Visualization orbit readout
Latitude
Unknown
Longitude
Unknown
Altitude
Unknown
Speed
Unknown
Apparent Right ascension
Unknown
Apparent Declination
Unknown
Sunlit
N/A
Visualization observer readout
Local Sidereal Time
12:48:06
Azimuth
Unknown
Elevation
Unknown
Doppler factor
Unknown
Orbital elements
Apogee altitude
1,137.984 km
Perigee altitude
835.793 km
Semi-major axis
7,365.026 km
Eccentricity
0.02052
Inclination
71.0147°
RAAN
211.4821°
Arg. of periapsis
148.2591°
True anomaly
325.68789°
Mean anomaly
326.9964°
Eccentric anomaly
326.34498°
Mean motion
3.43385 °/min
Orbital period
104.84 mins
BSTAR
0.00012432
Loading maneuver chart data...
Computing Atmospheric mass density...
Loading historical data...
Loading historical data...
Loading historical data...
Loading historical data...
Loading historical data...
Loading historical data...
Loading historical data...
Other satellites on launch #46 in the year 1990 (1990-05-22 UTC)

Documentation

Showing up to 5 results
|